| time (UTC) | temp C | wind direction | speed KPH | gust KPH | rain 1hr cm | rain 24hr cm | rain mn cm | humidity % | barometer mb |
| 20260509185001 | 19 | 230 | 8.0 | 22.5 | 0.00 | 0.00 | 0.00 | 58 | 1005.4 |
| 20260509183502 | 18 | 211 | 11.3 | 25.7 | 0.00 | 0.00 | 0.00 | 58 | 1005.4 |
| 20260509182001 | 18 | 206 | 12.9 | 20.9 | 0.00 | 0.00 | 0.00 | 59 | 1005.8 |
| 20260509180502 | 18 | 278 | 6.4 | 19.3 | 0.00 | 0.00 | 0.00 | 61 | 1005.8 |
| 20260509175002 | 19 | 163 | 6.4 | 14.5 | 0.00 | 0.00 | 0.00 | 57 | 1006.1 |
| 20260509173402 | 18 | 260 | 6.4 | 17.7 | 0.00 | 0.00 | 0.00 | 59 | 1006.4 |
| 20260509172003 | 20 | 228 | 8.0 | 16.1 | 0.00 | 0.00 | 0.00 | 58 | 1006.1 |
| 20260509171002 | 19 | 215 | 8.0 | 12.9 | 0.00 | 0.00 | 0.00 | 55 | 1006.4 |
| 20260509165402 | 18 | 242 | 8.0 | 17.7 | 0.00 | 0.00 | 0.00 | 58 | 1006.4 |
| 20260509164001 | 17 | 274 | 4.8 | 16.1 | 0.00 | 0.00 | 0.00 | 66 | 1006.8 |
| 20260509162502 | 17 | 247 | 9.7 | 17.7 | 0.00 | 0.00 | 0.00 | 63 | 1006.8 |
| 20260509161002 | 16 | 296 | 4.8 | 14.5 | 0.00 | 0.00 | 0.00 | 65 | 1006.8 |
| 20260509155502 | 16 | 255 | 4.8 | 17.7 | 0.00 | 0.00 | 0.00 | 64 | 1006.8 |
| 20260509154002 | 16 | 168 | 9.7 | 20.9 | 0.00 | 0.00 | 0.00 | 66 | 1006.8 |
| 20260509152502 | 16 | 268 | 3.2 | 11.3 | 0.00 | 0.00 | 0.00 | 67 | 1007.1 |
| 20260509151002 | 16 | 264 | 6.4 | 14.5 | 0.00 | 0.00 | 0.00 | 69 | 1007.1 |
| 20260509145502 | 15 | 304 | 9.7 | 17.7 | 0.00 | 0.00 | 0.00 | 69 | 1007.1 |
| 20260509143902 | 15 | 187 | 3.2 | 9.7 | 0.00 | 0.00 | 0.00 | 72 | 1007.1 |
| 20260509142402 | 15 | 262 | 6.4 | 14.5 | 0.00 | 0.00 | 0.00 | 71 | 1007.1 |
| 20260509140902 | 14 | 307 | 3.2 | 11.3 | 0.00 | 0.00 | 0.00 | 74 | 1007.5 |
| 20260509135902 | 13 | 201 | 8.0 | 11.3 | 0.00 | 0.00 | 0.00 | 76 | 1007.5 |
| 20260509134402 | 13 | 253 | 11.3 | 11.3 | 0.00 | 0.00 | 0.00 | 76 | 1007.5 |
| 20260509132902 | 13 | 273 | 8.0 | 17.7 | 0.00 | 0.00 | 0.00 | 77 | 1007.5 |
| 20260509130401 | 13 | 207 | 4.8 | 6.4 | 0.00 | 0.00 | 0.00 | 79 | 1007.5 |
| 20260509125002 | 12 | 182 | 3.2 | 12.9 | 0.00 | 0.00 | 0.00 | 82 | 1007.8 |
| 20260509123902 | 11 | 261 | 4.8 | 6.4 | 0.00 | 0.00 | 0.00 | 83 | 1007.8 |
| 20260509122502 | 11 | 189 | 4.8 | 9.7 | 0.00 | 0.00 | 0.00 | 84 | 1008.1 |
| 20260509120902 | 10 | 140 | 3.2 | 3.2 | 0.00 | 0.00 | 0.00 | 87 | 1008.1 |
| 20260509115502 | 9 | 240 | 3.2 | 6.4 | 0.00 | 0.00 | 0.00 | 89 | 1008.1 |
| 20260509114002 | 8 | 177 | 3.2 | 8.0 | 0.00 | 0.00 | 0.00 | 91 | 1007.8 |
| 20260509112503 | 7 | 153 | 4.8 | 8.0 | 0.00 | 0.00 | 0.00 | 94 | 1007.8 |
| 20260509111402 | 7 | 179 | 3.2 | 3.2 | 0.00 | 0.00 | 0.00 | 94 | 1008.1 |
| 20260509110003 | 6 | 246 | 1.6 | 1.6 | 0.00 | 0.00 | 0.00 | 94 | 1008.5 |
| 20260509104502 | 5 | 172 | 0.0 | 3.2 | 0.00 | 0.00 | 0.00 | 93 | 1008.1 |
| 20260509103003 | 5 | 247 | 0.0 | 0.0 | 0.00 | 0.00 | 0.00 | 92 | 1008.1 |
| 20260509101502 | 5 | 237 | 0.0 | 0.0 | 0.00 | 0.00 | 0.00 | 91 | 1008.1 |
| 20260509100004 | 5 | 246 | 0.0 | 0.0 | 0.00 | 0.00 | 0.00 | 91 | 1008.1 |
| 20260509094503 | 5 | 183 | 0.0 | 0.0 | 0.00 | 0.00 | 0.00 | 90 | 1008.1 |
| 20260509093002 | 5 | 143 | 0.0 | 0.0 | 0.00 | 0.00 | 0.00 | 89 | 1008.1 |
| 20260509091503 | 5 | 203 | 0.0 | 0.0 | 0.00 | 0.00 | 0.00 | 88 | 1008.1 |
| 20260509090501 | 5 | 132 | 0.0 | 0.0 | 0.00 | 0.00 | 0.00 | 86 | 1008.1 |
| 20260509085402 | 5 | 265 | 0.0 | 0.0 | 0.00 | 0.00 | 0.00 | 85 | 1008.1 |
| 20260509083902 | 5 | 259 | 0.0 | 0.0 | 0.00 | 0.00 | 0.00 | 82 | 1008.1 |
| 20260509082402 | 5 | 169 | 0.0 | 0.0 | 0.00 | 0.00 | 0.00 | 81 | 1008.1 |
| 20260509080902 | 5 | 151 | 0.0 | 3.2 | 0.00 | 0.00 | 0.00 | 79 | 1008.5 |
| 20260509075402 | 5 | 192 | 0.0 | 3.2 | 0.00 | 0.00 | 0.00 | 79 | 1008.5 |
| 20260509074003 | 5 | 168 | 0.0 | 6.4 | 0.00 | 0.00 | 0.00 | 79 | 1008.5 |
| 20260509072402 | 5 | 183 | 0.0 | 1.6 | 0.00 | 0.00 | 0.00 | 78 | 1008.8 |
| 20260509071003 | 5 | 188 | 1.6 | 6.4 | 0.00 | 0.00 | 0.00 | 77 | 1008.8 |
| 20260509065902 | 5 | 249 | 0.0 | 3.2 | 0.00 | 0.00 | 0.00 | 77 | 1008.8 |
| 20260509064402 | 5 | 206 | 1.6 | 3.2 | 0.00 | 0.00 | 0.00 | 76 | 1009.1 |
| 20260509063002 | 5 | 174 | 0.0 | 4.8 | 0.00 | 0.00 | 0.00 | 75 | 1009.1 |
| 20260509061503 | 5 | 208 | 0.0 | 4.8 | 0.00 | 0.00 | 0.00 | 74 | 1009.5 |
| 20260509060003 | 5 | 210 | 1.6 | 4.8 | 0.00 | 0.00 | 0.00 | 74 | 1009.8 |
| 20260509054502 | 5 | 211 | 0.0 | 1.6 | 0.00 | 0.00 | 0.00 | 74 | 1009.8 |
| 20260509053002 | 5 | 218 | 0.0 | 3.2 | 0.00 | 0.00 | 0.00 | 74 | 1009.8 |
| 20260509051502 | 5 | 124 | 0.0 | 3.2 | 0.00 | 0.00 | 0.00 | 73 | 1010.2 |
| 20260509050002 | 5 | 154 | 0.0 | 3.2 | 0.00 | 0.00 | 0.00 | 73 | 1010.2 |
| 20260509044503 | 5 | 217 | 1.6 | 3.2 | 0.00 | 0.00 | 0.00 | 73 | 1010.2 |
| 20260509043003 | 5 | 164 | 0.0 | 4.8 | 0.00 | 0.00 | 0.00 | 73 | 1010.5 |
| 20260509041502 | 5 | 155 | 0.0 | 3.2 | 0.00 | 0.00 | 0.00 | 74 | 1010.5 |
| 20260509040002 | 4 | 190 | 0.0 | 1.6 | 0.00 | 0.00 | 0.00 | 74 | 1010.8 |
| 20260509035502 | 4 | 160 | 1.6 | 1.6 | 0.00 | 0.00 | 0.25 | 74 | 1010.8 |
| 20260509034002 | 4 | 169 | 0.0 | 0.0 | 0.00 | 0.00 | 0.25 | 72 | 1010.8 |
| 20260509032502 | 5 | 271 | 0.0 | 0.0 | 0.00 | 0.00 | 0.25 | 71 | 1010.8 |
| 20260509031502 | 5 | 262 | 0.0 | 0.0 | 0.00 | 0.00 | 0.25 | 70 | 1011.2 |
| 20260509030003 | 5 | 258 | 0.0 | 0.0 | 0.00 | 0.00 | 0.25 | 67 | 1011.2 |
| 20260509025002 | 5 | 54 | 0.0 | 0.0 | 0.00 | 0.00 | 0.25 | 67 | 1011.2 |
| 20260509023402 | 5 | 203 | 0.0 | 0.0 | 0.00 | 0.00 | 0.25 | 66 | 1011.2 |
| 20260509021901 | 6 | 343 | 0.0 | 0.0 | 0.00 | 0.00 | 0.25 | 65 | 1011.2 |
| 20260509020402 | 6 | 23 | 0.0 | 0.0 | 0.00 | 0.00 | 0.25 | 60 | 1011.2 |
| 20260509015401 | 6 | 233 | 0.0 | 0.0 | 0.00 | 0.00 | 0.25 | 58 | 1010.8 |
| 20260509013901 | 7 | 248 | 0.0 | 0.0 | 0.00 | 0.00 | 0.25 | 53 | 1010.8 |
| 20260509012402 | 7 | 277 | 0.0 | 0.0 | 0.00 | 0.00 | 0.25 | 50 | 1010.8 |
| 20260509010902 | 8 | 254 | 0.0 | 0.0 | 0.00 | 0.00 | 0.25 | 47 | 1010.8 |
| 20260509005402 | 9 | 274 | 0.0 | 0.0 | 0.00 | 0.00 | 0.25 | 40 | 1010.5 |
| 20260509003902 | 10 | 242 | 0.0 | 6.4 | 0.00 | 0.00 | 0.25 | 36 | 1010.8 |
| 20260509002902 | 10 | 286 | 0.0 | 4.8 | 0.00 | 0.00 | 0.25 | 35 | 1010.8 |
| 20260509001502 | 11 | 193 | 4.8 | 4.8 | 0.00 | 0.00 | 0.25 | 33 | 1010.5 |
| 20260509000403 | 11 | 179 | 4.8 | 4.8 | 0.00 | 0.00 | 0.25 | 32 | 1010.5 |
| 20260508234902 | 12 | 230 | 3.2 | 6.4 | 0.00 | 0.00 | 0.25 | 33 | 1010.5 |
| 20260508233502 | 12 | 240 | 3.2 | 11.3 | 0.00 | 0.00 | 0.25 | 30 | 1010.2 |
| 20260508231902 | 13 | 273 | 0.0 | 9.7 | 0.00 | 0.00 | 0.25 | 31 | 1010.2 |
| 20260508230402 | 13 | 205 | 1.6 | 11.3 | 0.00 | 0.00 | 0.25 | 30 | 1010.2 |
| 20260508225002 | 14 | 190 | 11.3 | 11.3 | 0.00 | 0.00 | 0.25 | 32 | 1010.5 |
| 20260508223502 | 15 | 283 | 6.4 | 14.5 | 0.00 | 0.00 | 0.25 | 30 | 1010.5 |
| 20260508222403 | 15 | 224 | 4.8 | 9.7 | 0.00 | 0.00 | 0.25 | 29 | 1010.5 |
| 20260508221002 | 15 | 300 | 4.8 | 11.3 | 0.00 | 0.00 | 0.25 | 29 | 1010.5 |
| 20260508215902 | 15 | 266 | 6.4 | 12.9 | 0.00 | 0.00 | 0.25 | 30 | 1010.5 |
| 20260508214502 | 15 | 283 | 6.4 | 11.3 | 0.00 | 0.00 | 0.25 | 31 | 1010.5 |
| 20260508213001 | 15 | 25 | 11.3 | 11.3 | 0.00 | 0.00 | 0.25 | 31 | 1010.5 |
| 20260508211501 | 16 | 225 | 9.7 | 11.3 | 0.00 | 0.00 | 0.25 | 32 | 1010.5 |
| 20260508210003 | 15 | 260 | 9.7 | 14.5 | 0.00 | 0.00 | 0.25 | 30 | 1010.5 |
| 20260508205001 | 16 | 272 | 8.0 | 12.9 | 0.00 | 0.00 | 0.25 | 32 | 1010.5 |
| 20260508203402 | 16 | 279 | 6.4 | 9.7 | 0.00 | 0.00 | 0.25 | 31 | 1010.5 |
| 20260508201902 | 16 | 243 | 9.7 | 17.7 | 0.00 | 0.00 | 0.25 | 30 | 1010.8 |
| 20260508200502 | 17 | 239 | 11.3 | 12.9 | 0.00 | 0.00 | 0.25 | 30 | 1010.8 |
| 20260508195003 | 16 | 277 | 4.8 | 9.7 | 0.00 | 0.00 | 0.25 | 34 | 1011.2 |
| 20260508193501 | 17 | 31 | 0.0 | 11.3 | 0.00 | 0.00 | 0.25 | 36 | 1011.5 |
| 20260508192402 | 17 | 110 | 6.4 | 9.7 | 0.00 | 0.00 | 0.25 | 36 | 1011.5 |
| 20260508191401 | 15 | 247 | 1.6 | 11.3 | 0.00 | 0.00 | 0.25 | 38 | 1011.9 |
| 20260508190003 | 16 | 106 | 1.6 | 8.0 | 0.00 | 0.00 | 0.25 | 40 | 1011.9 |